Flag for USA

Past Weather in 41°47'21.2"N, 88°20'14.6"W, USA — Yesterday and Last 2 Weeks

Now
68 °F

Sunny.


Feels Like: 68 °F
Forecast: 70 / 48 °F
Wind: No wind

Location: Dupage Airport

Current Time: May 31, 2020 at 4:17:51 pm

Latest Report: May 31, 2020 at 2:52 pm


Visibility: 10 mi

Pressure: 30.29 "Hg

Humidity: 39%

Dew Point: 42 °F

Location of 41°47'21.2"N, 88°20'14.6"WLocation

Past Weather in 41°47'21.2"N, 88°20'14.6"W — Graph

°F

41°47'21.2"N, 88°20'14.6"W Temperature Yesterday

Maximum temperature yesterday: 71 °F (at 1:52 pm)
Minimum temperature yesterday: 50 °F (at 4:52 am)
Average temperature yesterday: 62 °F

High & Low Weather Summary for the Past Weeks

 TemperatureHumidityPressure
High86 °F (May 24, 3:52 pm)100% (May 17, 5:59 pm)30.37 "Hg (May 17, 5:59 pm)
Low47 °F (May 31, 1:52 am)36% (May 30, 5:52 pm)29.65 "Hg (May 17, 6:52 pm)
Average64 °F79%29.95 "Hg
* Reported May 16 2:52 pm — May 31 2:52 pm, 41°47'21.2"N, 88°20'14.6"W. Weather by CustomWeather, © 2020

Note: Actual official high and low records may vary slightly from our data, if they occured in-between our weather recording intervals... More about our weather records

41°47'21.2"N, 88°20'14.6"W Weather History for the Previous 24 Hours

Scroll right to see more
 ConditionsComfort  
Time TempWeatherWind HumidityBarometerVisibility
2:52 pm
Sun, May 31
68 °FSunny.No wind39%30.29 "Hg10 mi
1:52 pm68 °FSunny.3 mph40%30.32 "Hg10 mi
12:52 pm66 °FSunny.3 mph42%30.33 "Hg10 mi
11:52 am64 °FSunny.6 mph47%30.34 "Hg10 mi
10:52 am62 °FSunny.6 mph48%30.36 "Hg10 mi
9:52 am60 °FSunny.9 mph49%30.37 "Hg10 mi
8:52 am57 °FSunny.10 mph51%30.36 "Hg10 mi
7:52 am54 °FSunny.12 mph55%30.35 "Hg10 mi
6:52 am51 °FSunny.8 mph66%30.35 "Hg10 mi
5:52 am48 °FSunny.6 mph74%30.34 "Hg10 mi
4:52 am49 °FClear.10 mph77%30.32 "Hg10 mi
3:52 am49 °FClear.7 mph86%30.30 "Hg10 mi
2:52 am49 °FClear.7 mph86%30.28 "Hg10 mi
1:52 am47 °FClear.5 mph86%30.26 "Hg10 mi
12:52 am49 °FClear.5 mph80%30.26 "Hg10 mi
11:52 pm
Sat, May 30
52 °FClear.No wind72%30.24 "Hg10 mi
10:52 pm54 °FClear.8 mph67%30.24 "Hg10 mi
9:52 pm57 °FClear.12 mph62%30.22 "Hg10 mi
8:52 pm60 °FClear.9 mph60%30.19 "Hg10 mi
7:52 pm64 °FScattered clouds.7 mph58%30.17 "Hg10 mi
6:52 pm70 °FPartly sunny.13 mph37%30.15 "Hg10 mi
5:52 pm71 °FPassing clouds.10 mph36%30.14 "Hg10 mi
4:52 pm71 °FScattered clouds.10 mph39%30.15 "Hg10 mi
Weather by CustomWeather, © 2020

See weather overview

Advertising